BAW962H EGLL-EDDH

Flight info

Callsign BAW962H
Flight time N/A
Altitude 37000
Route BPK6J BPK Q295 SOMVA DCT MAVAS DCT GASTU DCT OSTOR T904 RIBSO RIBSO3D
Aircraft A320/M-SDE3FGHIRWXY/S

Departure

Time N/A
Airport London Heathrow Airport (EGLL)

Arrival

Time 2026-05-01 07:45
Airport Hamburg Helmut Schmidt Airport (EDDH)
Time Latitude Longitude Altitude Speed Heading
2026-05-01 07:23 53.47935 7.34051 35294 ft 434 kts 67°
2026-05-01 07:23 53.50159 7.43514 34264 ft 438 kts 67°
2026-05-01 07:24 53.51283 7.48292 33336 ft 442 kts 67°
2026-05-01 07:24 53.52393 7.53034 32811 ft 437 kts 67°
2026-05-01 07:24 53.53510 7.57835 32272 ft 433 kts 67°
2026-05-01 07:24 53.54583 7.62470 31728 ft 430 kts 67°
2026-05-01 07:25 53.55662 7.67134 31188 ft 427 kts 67°
2026-05-01 07:25 53.56735 7.71767 30648 ft 423 kts 67°
2026-05-01 07:25 53.57799 7.76369 30053 ft 420 kts 67°
2026-05-01 07:25 53.58854 7.80947 29519 ft 416 kts 67°
2026-05-01 07:26 53.59890 7.85459 28981 ft 411 kts 68°
2026-05-01 07:26 53.60918 7.89948 28461 ft 407 kts 68°
2026-05-01 07:26 53.61930 7.94386 27934 ft 404 kts 68°
2026-05-01 07:26 53.62931 7.98787 27417 ft 401 kts 68°
2026-05-01 07:27 53.63900 8.03180 26895 ft 399 kts 69°
2026-05-01 07:27 53.64782 8.07544 26384 ft 397 kts 71°
2026-05-01 07:27 53.65622 8.11972 25878 ft 395 kts 72°
2026-05-01 07:27 53.66436 8.16395 25388 ft 394 kts 72°
2026-05-01 07:28 53.67246 8.20807 24919 ft 392 kts 72°
2026-05-01 07:28 53.68054 8.25183 24425 ft 391 kts 72°
2026-05-01 07:28 53.68870 8.29544 23971 ft 389 kts 72°
2026-05-01 07:28 53.69689 8.33880 23466 ft 387 kts 72°
2026-05-01 07:29 53.70505 8.38178 23011 ft 383 kts 72°
2026-05-01 07:29 53.71318 8.42453 22558 ft 380 kts 72°
2026-05-01 07:29 53.72112 8.46644 22107 ft 376 kts 73°
2026-05-01 07:29 53.72902 8.50840 21645 ft 373 kts 73°
2026-05-01 07:30 53.73679 8.54988 21178 ft 370 kts 73°
2026-05-01 07:30 53.74451 8.59125 20700 ft 367 kts 73°
2026-05-01 07:30 53.75213 8.63227 20230 ft 365 kts 73°
2026-05-01 07:30 53.75971 8.67319 19733 ft 363 kts 73°
2026-05-01 07:31 53.76714 8.71324 19255 ft 361 kts 73°
2026-05-01 07:31 53.78940 8.83383 17717 ft 354 kts 74°
2026-05-01 07:32 53.80388 8.91270 16742 ft 348 kts 74°
2026-05-01 07:32 53.81100 8.95167 16255 ft 346 kts 74°
2026-05-01 07:33 53.82478 9.02858 15294 ft 340 kts 78°
2026-05-01 07:33 53.82785 9.06800 14810 ft 336 kts 90°
2026-05-01 07:33 53.82408 9.14642 13808 ft 332 kts 96°
2026-05-01 07:34 53.82181 9.18520 13335 ft 329 kts 96°
2026-05-01 07:34 53.81409 9.25988 12762 ft 311 kts 115°
2026-05-01 07:34 53.80276 9.28936 12694 ft 298 kts 133°
2026-05-01 07:35 53.78653 9.31103 12498 ft 301 kts 150°
2026-05-01 07:35 53.76775 9.32692 12107 ft 301 kts 152°
2026-05-01 07:35 53.74900 9.34242 11683 ft 301 kts 152°
2026-05-01 07:35 53.73020 9.35791 11261 ft 300 kts 152°
2026-05-01 07:36 53.71139 9.37342 10842 ft 301 kts 152°
2026-05-01 07:36 53.69282 9.38873 10672 ft 291 kts 152°
2026-05-01 07:36 53.67485 9.40356 10504 ft 284 kts 152°
2026-05-01 07:36 53.65734 9.41804 10440 ft 281 kts 152°
2026-05-01 07:37 53.62205 9.44718 9744 ft 284 kts 152°
2026-05-01 07:37 53.60433 9.46174 9276 ft 282 kts 152°
2026-05-01 07:37 53.58694 9.47606 8783 ft 274 kts 152°
2026-05-01 07:38 53.56991 9.49010 8353 ft 272 kts 152°
2026-05-01 07:38 53.55294 9.50407 7924 ft 270 kts 152°
2026-05-01 07:38 53.51947 9.53158 6871 ft 270 kts 153°
2026-05-01 07:39 53.50262 9.54541 6210 ft 268 kts 153°
2026-05-01 07:39 53.48606 9.55903 5777 ft 260 kts 153°
2026-05-01 07:39 53.45950 9.59216 5506 ft 231 kts 116°
2026-05-01 07:40 53.45558 9.61907 5416 ft 250 kts 90°
2026-05-01 07:40 53.46061 9.64762 4956 ft 268 kts 58°
2026-05-01 07:40 53.47204 9.67167 4580 ft 258 kts 50°
2026-05-01 07:40 53.48381 9.69384 4235 ft 249 kts 51°
2026-05-01 07:41 53.49480 9.71549 3909 ft 238 kts 52°
2026-05-01 07:41 53.50521 9.73635 3601 ft 228 kts 52°
2026-05-01 07:41 53.52483 9.77569 3003 ft 213 kts 52°
2026-05-01 07:42 53.53417 9.79444 2725 ft 206 kts 52°
2026-05-01 07:42 53.54319 9.81254 2463 ft 197 kts 52°
2026-05-01 07:42 53.55188 9.82996 2186 ft 190 kts 52°
2026-05-01 07:42 53.56007 9.84644 1928 ft 176 kts 52°
2026-05-01 07:43 53.56765 9.86167 1705 ft 164 kts 52°
2026-05-01 07:43 53.57464 9.87573 1497 ft 149 kts 52°
2026-05-01 07:43 53.58733 9.90132 1110 ft 143 kts 52°
2026-05-01 07:44 53.59995 9.92676 712 ft 141 kts 52°
2026-05-01 07:44 53.61248 9.95202 325 ft 140 kts 52°
2026-05-01 07:45 53.61871 9.96462 132 ft 140 kts 52°
2026-05-01 07:45 53.62283 9.97292 46 ft 139 kts 52°
2026-05-01 07:45 53.62832 9.98408 44 ft 100 kts 50°
2026-05-01 07:45 53.63161 9.99068 46 ft 49 kts 49°
2026-05-01 07:46 53.63293 9.99432 47 ft 29 kts 87°
2026-05-01 07:46 53.63280 9.99620 48 ft 4 kts 99°
2026-05-01 07:46 53.63262 9.99723 46 ft 9 kts 130°
2026-05-01 07:47 53.63196 9.99800 49 ft 14 kts 128°
2026-05-01 07:47 53.63130 9.99895 49 ft 11 kts 113°
2026-05-01 07:47 53.63170 10.00014 49 ft 13 kts 49°
2026-05-01 07:47 53.63218 10.00141 49 ft 12 kts 86°
2026-05-01 07:48 53.63206 10.00364 49 ft 0 kts 85°
2026-05-01 07:48 53.63206 10.00369 49 ft 0 kts 85°